This demonstration page uses our WeatherBlox Daily Observations layout. Learn more.

Left ArrowRight Arrow

38.20091, -84.87328

Hourly Observations for August 21, 2016

Temp ( °F °C ) Dew Point ( °F °C ) Humidity (%) Winds ( mph kmh ) Pressure ( in mb ) Visibility ( mi km ) Precip ( " mm )
12:53 am 00:53 Clear 72 22.2 69 20.6 91 91 WSW 7 11 29.78 1009 10 16 0.00 0.00
1:53 am 01:53 Mostly Clear 72 22.2 69 20.6 91 91 SW 7 11 29.79 1009 10 16 0.00 0.00
2:37 am 02:37 Mostly Cloudy 72 22.2 69 20.6 91 91 SW 6 9 29.77 1008 10 16 0.02 0.51
2:46 am 02:46 Mostly Cloudy with Light Rain 72 22.2 69 20.6 91 91 SW 6 9 29.77 1008 10 16 0.02 0.51
2:53 am 02:53 Cloudy with Light Rain 72 22.2 69 20.6 91 91 WSW 5 7 29.79 1009 10 16 0.02 0.51
3:02 am 03:02 Cloudy 72 22.2 69 20.6 91 91 WSW 5 7 29.80 1009 10 16 0.00 0.03
3:53 am 03:53 Cloudy 72 22.2 69 20.6 91 91 WSW 5 7 29.80 1009 10 16 0.00 0.03
4:03 am 04:03 Cloudy 72 22.2 69 20.6 91 91 WSW 7 11 29.80 1009 10 16 0.00 0.00
4:14 am 04:14 Cloudy with Light Rain 72 22.2 69 20.6 91 91 WSW 5 7 29.80 1009 9 14 0.00 0.03
4:30 am 04:30 Mostly Cloudy 72 22.2 69 20.6 91 91 W 3 6 29.80 1009 10 16 0.00 0.03
4:35 am 04:35 Cloudy 72 22.2 69 20.6 91 91 W 3 6 29.80 1009 10 16 0.00 0.03
4:53 am 04:53 Mostly Cloudy 72 22.2 69 20.6 91 91 WSW 3 6 29.79 1009 10 16 0.00 0.03
5:17 am 05:17 Cloudy 71 21.7 69 20.6 94 94 WSW 3 6 29.80 1009 9 14 0.00 0.00
5:38 am 05:38 Cloudy with Light Rain 71 21.7 68 20 90 90 WSW 3 6 29.80 1009 7 11 0.00 0.03
5:53 am 05:53 Mostly Cloudy with Light Rain 71 21.7 68 20 90 90 WSW 3 6 29.81 1009 8 13 0.01 0.25
6:36 am 06:36 Mostly Cloudy 71 21.7 68 20 90 90 W 3 6 29.83 1010 9 14 0.00 0.03
6:53 am 06:53 Cloudy 71 21.7 68 20 90 90 WNW 6 9 29.83 1010 10 16 0.00 0.03
7:03 am 07:03 Cloudy with Light Rain 71 21.7 68 20 90 90 WNW 5 7 29.85 1011 9 14 0.00 0.03
7:53 am 07:53 Mostly Cloudy 71 21.7 67 19.4 87 87 NW 5 7 29.86 1011 10 16 0.00 0.03
8:53 am 08:53 Mostly Cloudy 71 21.7 68 20 90 90 NW 5 7 29.89 1012 10 16 0.00 0.00
9:53 am 09:53 Partly Cloudy 72 22.2 67 19.4 84 84 NW 8 13 29.90 1013 10 16 0.00 0.00
10:53 am 10:53 Sunny 73 22.8 65 18.3 76 76 NW 6 9 29.92 1013 10 16 0.00 0.00
11:53 am 11:53 Mostly Sunny 75 23.9 64 17.8 69 69 NW 7 11 29.94 1014 10 16 0.00 0.00
12:53 pm 12:53 Mostly Sunny 77 25 62 16.7 60 60 WNW 10 17 29.94 1014 10 16 0.00 0.00
1:53 pm 13:53 Partly Cloudy 78 25.6 58 14.4 50 50 W 9 15 29.95 1014 10 16 0.00 0.00
2:53 pm 14:53 Mostly Sunny 80 26.7 57 13.9 45 45 NW 9 15 29.94 1014 10 16 0.00 0.00
3:53 pm 15:53 Mostly Sunny 80 26.7 56 13.3 44 44 W 10 17 29.94 1014 10 16 0.00 0.00
4:53 pm 16:53 Partly Cloudy 80 26.7 57 13.9 45 45 VRB 7 11 29.95 1014 10 16 0.00 0.00
5:53 pm 17:53 Mostly Sunny 80 26.7 56 13.3 44 44 WNW 8 13 29.96 1014 10 16 0.00 0.00
6:53 pm 18:53 Sunny 78 25.6 57 13.9 48 48 WNW 8 13 29.96 1015 10 16 0.00 0.00
7:53 pm 19:53 Sunny 75 23.9 59 15 58 58 WNW 3 6 29.98 1015 10 16 0.00 0.00
8:53 pm 20:53 Clear 70 21.1 60 15.6 71 71 WNW 3 6 30.01 1016 10 16 0.00 0.00
9:53 pm 21:53 Clear 66 18.9 60 15.6 81 81 WNW 3 6 30.04 1017 10 16 0.00 0.00
10:53 pm 22:53 Clear 65 18.3 60 15.6 84 84 Calm 30.06 1018 10 16 0.00 0.00
11:53 pm 23:53 Clear 64 17.8 60 15.6 87 87 Calm 30.07 1018 10 16 0.00 0.00

Powered by AerisWeather